owner,sensor,date,latitude,longitude,air_temperature,qcFlag 
WAVCIS,ioos:station:WAVCIS:CSI03:1,2010-01-01T00:00:00Z,29.4412,-92.0613,8.85,11111222 
WAVCIS,ioos:station:WAVCIS:CSI03:1,2010-01-01T01:00:00Z,29.4412,-92.0613,8.99,11111222 
WAVCIS,ioos:station:WAVCIS:CSI03:1,2010-01-01T02:00:00Z,29.4412,-92.0613,9.2,11111222 
WAVCIS,ioos:station:WAVCIS:CSI03:1,2010-01-01T03:00:00Z,29.4412,-92.0613,9.88,11111222 
WAVCIS,ioos:station:WAVCIS:CSI03:1,2010-01-01T04:00:00Z,29.4412,-92.0613,10.51,11111222 
WAVCIS,ioos:station:WAVCIS:CSI03:1,2010-01-01T05:00:00Z,29.4412,-92.0613,11.12,11111222 
WAVCIS,ioos:station:WAVCIS:CSI03:1,2010-01-01T06:00:00Z,29.4412,-92.0613,11.27,11111222 
WAVCIS,ioos:station:WAVCIS:CSI03:1,2010-01-01T07:00:00Z,29.4412,-92.0613,10.62,11111222 
WAVCIS,ioos:station:WAVCIS:CSI03:1,2010-01-01T16:00:00Z,29.4412,-92.0613,7.1,11111222 
WAVCIS,ioos:station:WAVCIS:CSI03:1,2010-01-01T17:00:00Z,29.4412,-92.0613,6.813,11111222 
WAVCIS,ioos:station:WAVCIS:CSI03:1,2010-01-01T18:00:00Z,29.4412,-92.0613,7.59,11111222 
WAVCIS,ioos:station:WAVCIS:CSI03:1,2010-01-01T19:00:00Z,29.4412,-92.0613,8.79,11111222 
WAVCIS,ioos:station:WAVCIS:CSI03:1,2010-01-01T20:00:00Z,29.4412,-92.0613,9.28,11111222 
WAVCIS,ioos:station:WAVCIS:CSI03:1,2010-01-01T21:00:00Z,29.4412,-92.0613,9.75,11111222 
WAVCIS,ioos:station:WAVCIS:CSI03:1,2010-01-01T22:00:00Z,29.4412,-92.0613,10.28,11111222 
WAVCIS,ioos:station:WAVCIS:CSI03:1,2010-01-01T23:00:00Z,29.4412,-92.0613,10.2,11111222 
WAVCIS,ioos:station:WAVCIS:CSI03:1,2010-01-02T00:00:00Z,29.4412,-92.0613,9.92,11111222 
WAVCIS,ioos:station:WAVCIS:CSI03:1,2010-01-02T01:00:00Z,29.4412,-92.0613,9.62,11111222 
WAVCIS,ioos:station:WAVCIS:CSI03:1,2010-01-02T02:00:00Z,29.4412,-92.0613,9.18,11111222 
WAVCIS,ioos:station:WAVCIS:CSI03:1,2010-01-02T03:00:00Z,29.4412,-92.0613,8.65,11111222 
WAVCIS,ioos:station:WAVCIS:CSI03:1,2010-01-02T04:00:00Z,29.4412,-92.0613,8.3,11111222 
WAVCIS,ioos:station:WAVCIS:CSI03:1,2010-01-02T05:00:00Z,29.4412,-92.0613,7.83,11111222 
WAVCIS,ioos:station:WAVCIS:CSI03:1,2010-01-02T06:00:00Z,29.4412,-92.0613,7.42,11111222 
WAVCIS,ioos:station:WAVCIS:CSI03:1,2010-01-02T07:00:00Z,29.4412,-92.0613,7.07,11111222 
WAVCIS,ioos:station:WAVCIS:CSI03:1,2010-01-02T08:00:00Z,29.4412,-92.0613,6.669,11111222 
WAVCIS,ioos:station:WAVCIS:CSI03:1,2010-01-02T09:00:00Z,29.4412,-92.0613,6.27,11111222 
WAVCIS,ioos:station:WAVCIS:CSI03:1,2010-01-02T10:00:00Z,29.4412,-92.0613,5.865,11111222 
WAVCIS,ioos:station:WAVCIS:CSI03:1,2010-01-02T11:00:00Z,29.4412,-92.0613,5.418,11111222 
WAVCIS,ioos:station:WAVCIS:CSI03:1,2010-01-02T12:00:00Z,29.4412,-92.0613,5.117,11111222 
WAVCIS,ioos:station:WAVCIS:CSI03:1,2010-01-02T13:00:00Z,29.4412,-92.0613,4.977,11111222 
WAVCIS,ioos:station:WAVCIS:CSI03:1,2010-01-02T14:00:00Z,29.4412,-92.0613,5.274,11111222 
WAVCIS,ioos:station:WAVCIS:CSI03:1,2010-01-02T15:00:00Z,29.4412,-92.0613,5.518,11111222 
WAVCIS,ioos:station:WAVCIS:CSI03:1,2010-01-02T16:00:00Z,29.4412,-92.0613,6.0,11111222 
WAVCIS,ioos:station:WAVCIS:CSI03:1,2010-01-02T17:00:00Z,29.4412,-92.0613,6.676,11111222 
WAVCIS,ioos:station:WAVCIS:CSI03:1,2010-01-02T18:00:00Z,29.4412,-92.0613,7.49,11111222 
WAVCIS,ioos:station:WAVCIS:CSI03:1,2010-01-02T19:00:00Z,29.4412,-92.0613,8.24,11111222 
WAVCIS,ioos:station:WAVCIS:CSI03:1,2010-01-02T20:00:00Z,29.4412,-92.0613,8.93,11111222 
WAVCIS,ioos:station:WAVCIS:CSI03:1,2010-01-02T21:00:00Z,29.4412,-92.0613,9.64,11111222 
WAVCIS,ioos:station:WAVCIS:CSI03:1,2010-01-02T22:00:00Z,29.4412,-92.0613,9.64,11111222 
WAVCIS,ioos:station:WAVCIS:CSI03:1,2010-01-02T23:00:00Z,29.4412,-92.0613,9.43,11111222 
WAVCIS,ioos:station:WAVCIS:CSI03:1,2010-01-03T00:00:00Z,29.4412,-92.0613,9.24,11111222 
WAVCIS,ioos:station:WAVCIS:CSI03:1,2010-01-03T01:00:00Z,29.4412,-92.0613,9.26,11111222 
WAVCIS,ioos:station:WAVCIS:CSI03:1,2010-01-03T02:00:00Z,29.4412,-92.0613,9.12,11111222 
WAVCIS,ioos:station:WAVCIS:CSI03:1,2010-01-03T03:00:00Z,29.4412,-92.0613,9.15,11111222 
WAVCIS,ioos:station:WAVCIS:CSI03:1,2010-01-03T04:00:00Z,29.4412,-92.0613,9.22,11111222 
WAVCIS,ioos:station:WAVCIS:CSI03:1,2010-01-03T05:00:00Z,29.4412,-92.0613,9.36,11111222 
WAVCIS,ioos:station:WAVCIS:CSI03:1,2010-01-03T06:00:00Z,29.4412,-92.0613,8.27,11111222 
WAVCIS,ioos:station:WAVCIS:CSI03:1,2010-01-03T07:00:00Z,29.4412,-92.0613,8.09,11111222 
WAVCIS,ioos:station:WAVCIS:CSI03:1,2010-01-03T08:00:00Z,29.4412,-92.0613,8.14,11111222 
WAVCIS,ioos:station:WAVCIS:CSI03:1,2010-01-03T09:00:00Z,29.4412,-92.0613,7.89,11111222 
WAVCIS,ioos:station:WAVCIS:CSI03:1,2010-01-03T10:00:00Z,29.4412,-92.0613,6.915,11111222 
WAVCIS,ioos:station:WAVCIS:CSI03:1,2010-01-03T11:00:00Z,29.4412,-92.0613,6.324,11111222 
WAVCIS,ioos:station:WAVCIS:CSI03:1,2010-01-03T12:00:00Z,29.4412,-92.0613,5.971,11111222 
WAVCIS,ioos:station:WAVCIS:CSI03:1,2010-01-03T13:00:00Z,29.4412,-92.0613,6.014,11111222 
WAVCIS,ioos:station:WAVCIS:CSI03:1,2010-01-03T14:00:00Z,29.4412,-92.0613,5.357,11111222 
WAVCIS,ioos:station:WAVCIS:CSI03:1,2010-01-03T15:00:00Z,29.4412,-92.0613,5.7,11111222 
WAVCIS,ioos:station:WAVCIS:CSI03:1,2010-01-03T16:00:00Z,29.4412,-92.0613,5.893,11111222 
WAVCIS,ioos:station:WAVCIS:CSI03:1,2010-01-03T17:00:00Z,29.4412,-92.0613,6.041,11111222 
WAVCIS,ioos:station:WAVCIS:CSI03:1,2010-01-03T18:00:00Z,29.4412,-92.0613,6.188,11111222 
WAVCIS,ioos:station:WAVCIS:CSI03:1,2010-01-03T19:00:00Z,29.4412,-92.0613,6.806,11111222 
WAVCIS,ioos:station:WAVCIS:CSI03:1,2010-01-03T20:00:00Z,29.4412,-92.0613,7.91,11111222 
WAVCIS,ioos:station:WAVCIS:CSI03:1,2010-01-03T21:00:00Z,29.4412,-92.0613,8.34,11111222 
WAVCIS,ioos:station:WAVCIS:CSI03:1,2010-01-03T22:00:00Z,29.4412,-92.0613,8.51,11111222 
WAVCIS,ioos:station:WAVCIS:CSI03:1,2010-01-03T23:00:00Z,29.4412,-92.0613,8.66,11111222 
WAVCIS,ioos:station:WAVCIS:CSI03:1,2010-01-04T00:00:00Z,29.4412,-92.0613,8.73,11111222 
WAVCIS,ioos:station:WAVCIS:CSI03:1,2010-01-04T01:00:00Z,29.4412,-92.0613,8.86,11111222 
WAVCIS,ioos:station:WAVCIS:CSI03:1,2010-01-04T02:00:00Z,29.4412,-92.0613,8.87,11111222 
WAVCIS,ioos:station:WAVCIS:CSI03:1,2010-01-04T03:00:00Z,29.4412,-92.0613,8.0,11111222 
WAVCIS,ioos:station:WAVCIS:CSI03:1,2010-01-04T04:00:00Z,29.4412,-92.0613,7.4,11111222 
WAVCIS,ioos:station:WAVCIS:CSI03:1,2010-01-04T05:00:00Z,29.4412,-92.0613,7.05,11111222 
WAVCIS,ioos:station:WAVCIS:CSI03:1,2010-01-04T06:00:00Z,29.4412,-92.0613,6.83,11111222 
WAVCIS,ioos:station:WAVCIS:CSI03:1,2010-01-04T07:00:00Z,29.4412,-92.0613,5.937,11111222 
WAVCIS,ioos:station:WAVCIS:CSI03:1,2010-01-04T08:00:00Z,29.4412,-92.0613,5.895,11111222 
WAVCIS,ioos:station:WAVCIS:CSI03:1,2010-01-04T09:00:00Z,29.4412,-92.0613,5.922,11111222 
WAVCIS,ioos:station:WAVCIS:CSI03:1,2010-01-04T10:00:00Z,29.4412,-92.0613,5.66,11111222 
WAVCIS,ioos:station:WAVCIS:CSI03:1,2010-01-04T11:00:00Z,29.4412,-92.0613,5.544,11111222 
WAVCIS,ioos:station:WAVCIS:CSI03:1,2010-01-04T12:00:00Z,29.4412,-92.0613,5.221,11111222 
WAVCIS,ioos:station:WAVCIS:CSI03:1,2010-01-04T13:00:00Z,29.4412,-92.0613,5.228,11111222 
WAVCIS,ioos:station:WAVCIS:CSI03:1,2010-01-04T14:00:00Z,29.4412,-92.0613,5.165,11111222 
WAVCIS,ioos:station:WAVCIS:CSI03:1,2010-01-04T15:00:00Z,29.4412,-92.0613,4.86,11111222 
WAVCIS,ioos:station:WAVCIS:CSI03:1,2010-01-04T16:00:00Z,29.4412,-92.0613,4.614,11111222 
WAVCIS,ioos:station:WAVCIS:CSI03:1,2010-01-04T17:00:00Z,29.4412,-92.0613,5.007,11111222 
WAVCIS,ioos:station:WAVCIS:CSI03:1,2010-01-04T18:00:00Z,29.4412,-92.0613,4.899,11111222 
WAVCIS,ioos:station:WAVCIS:CSI03:1,2010-01-04T19:00:00Z,29.4412,-92.0613,4.453,11111222 
WAVCIS,ioos:station:WAVCIS:CSI03:1,2010-01-04T20:00:00Z,29.4412,-92.0613,4.108,11111222 
WAVCIS,ioos:station:WAVCIS:CSI03:1,2010-01-04T21:00:00Z,29.4412,-92.0613,3.85,11111222 
WAVCIS,ioos:station:WAVCIS:CSI03:1,2010-01-04T22:00:00Z,29.4412,-92.0613,3.812,11111222 
WAVCIS,ioos:station:WAVCIS:CSI03:1,2010-01-04T23:00:00Z,29.4412,-92.0613,3.396,11111222 
WAVCIS,ioos:station:WAVCIS:CSI03:1,2010-01-05T00:00:00Z,29.4412,-92.0613,3.222,11111222 
WAVCIS,ioos:station:WAVCIS:CSI03:1,2010-01-05T01:00:00Z,29.4412,-92.0613,2.96,11111222 
WAVCIS,ioos:station:WAVCIS:CSI03:1,2010-01-05T02:00:00Z,29.4412,-92.0613,2.94,11111222 
WAVCIS,ioos:station:WAVCIS:CSI03:1,2010-01-05T03:00:00Z,29.4412,-92.0613,2.887,11111222 
WAVCIS,ioos:station:WAVCIS:CSI03:1,2010-01-05T04:00:00Z,29.4412,-92.0613,2.523,11111222 
WAVCIS,ioos:station:WAVCIS:CSI03:1,2010-01-05T05:00:00Z,29.4412,-92.0613,2.408,11111222 
WAVCIS,ioos:station:WAVCIS:CSI03:1,2010-01-05T06:00:00Z,29.4412,-92.0613,2.113,11111222 
WAVCIS,ioos:station:WAVCIS:CSI03:1,2010-01-05T07:00:00Z,29.4412,-92.0613,2.005,11111222 
WAVCIS,ioos:station:WAVCIS:CSI03:1,2010-01-05T08:00:00Z,29.4412,-92.0613,1.588,11111222 
WAVCIS,ioos:station:WAVCIS:CSI03:1,2010-01-05T09:00:00Z,29.4412,-92.0613,1.338,11111222 
WAVCIS,ioos:station:WAVCIS:CSI03:1,2010-01-05T10:00:00Z,29.4412,-92.0613,1.032,11111222 
WAVCIS,ioos:station:WAVCIS:CSI03:1,2010-01-05T11:00:00Z,29.4412,-92.0613,1.037,11111222 
WAVCIS,ioos:station:WAVCIS:CSI03:1,2010-01-05T12:00:00Z,29.4412,-92.0613,1.068,11111222 
WAVCIS,ioos:station:WAVCIS:CSI03:1,2010-01-05T13:00:00Z,29.4412,-92.0613,0.993,11111222 
WAVCIS,ioos:station:WAVCIS:CSI03:1,2010-01-05T14:00:00Z,29.4412,-92.0613,1.04,11111222 
WAVCIS,ioos:station:WAVCIS:CSI03:1,2010-01-05T15:00:00Z,29.4412,-92.0613,1.24,11111222 
WAVCIS,ioos:station:WAVCIS:CSI03:1,2010-01-05T16:00:00Z,29.4412,-92.0613,1.227,11111222 
WAVCIS,ioos:station:WAVCIS:CSI03:1,2010-01-05T17:00:00Z,29.4412,-92.0613,1.471,11111222 
WAVCIS,ioos:station:WAVCIS:CSI03:1,2010-01-05T18:00:00Z,29.4412,-92.0613,1.885,11111222 
WAVCIS,ioos:station:WAVCIS:CSI03:1,2010-01-05T19:00:00Z,29.4412,-92.0613,2.539,11111222 
WAVCIS,ioos:station:WAVCIS:CSI03:1,2010-01-05T20:00:00Z,29.4412,-92.0613,4.179,11111222 
WAVCIS,ioos:station:WAVCIS:CSI03:1,2010-01-05T21:00:00Z,29.4412,-92.0613,5.089,11111222 
WAVCIS,ioos:station:WAVCIS:CSI03:1,2010-01-05T22:00:00Z,29.4412,-92.0613,4.773,11111222 
WAVCIS,ioos:station:WAVCIS:CSI03:1,2010-01-05T23:00:00Z,29.4412,-92.0613,4.905,11111222 
WAVCIS,ioos:station:WAVCIS:CSI03:1,2010-01-06T00:00:00Z,29.4412,-92.0613,4.65,11111222 
WAVCIS,ioos:station:WAVCIS:CSI03:1,2010-01-06T01:00:00Z,29.4412,-92.0613,4.926,11111222 
WAVCIS,ioos:station:WAVCIS:CSI03:1,2010-01-06T02:00:00Z,29.4412,-92.0613,4.968,11111222 
WAVCIS,ioos:station:WAVCIS:CSI03:1,2010-01-06T03:00:00Z,29.4412,-92.0613,5.099,11111222 
WAVCIS,ioos:station:WAVCIS:CSI03:1,2010-01-06T04:00:00Z,29.4412,-92.0613,5.21,11111222 
WAVCIS,ioos:station:WAVCIS:CSI03:1,2010-01-06T05:00:00Z,29.4412,-92.0613,5.282,11111222 
WAVCIS,ioos:station:WAVCIS:CSI03:1,2010-01-06T06:00:00Z,29.4412,-92.0613,5.215,11111222 
WAVCIS,ioos:station:WAVCIS:CSI03:1,2010-01-06T07:00:00Z,29.4412,-92.0613,5.078,11111222 
WAVCIS,ioos:station:WAVCIS:CSI03:1,2010-01-06T08:00:00Z,29.4412,-92.0613,4.803,11111222 
WAVCIS,ioos:station:WAVCIS:CSI03:1,2010-01-06T09:00:00Z,29.4412,-92.0613,5.003,11111222 
WAVCIS,ioos:station:WAVCIS:CSI03:1,2010-01-06T10:00:00Z,29.4412,-92.0613,4.74,11111222 
WAVCIS,ioos:station:WAVCIS:CSI03:1,2010-01-06T11:00:00Z,29.4412,-92.0613,4.482,11111222 
WAVCIS,ioos:station:WAVCIS:CSI03:1,2010-01-06T12:00:00Z,29.4412,-92.0613,4.448,11111222 
WAVCIS,ioos:station:WAVCIS:CSI03:1,2010-01-06T13:00:00Z,29.4412,-92.0613,4.581,11111222 
WAVCIS,ioos:station:WAVCIS:CSI03:1,2010-01-06T14:00:00Z,29.4412,-92.0613,4.681,11111222 
WAVCIS,ioos:station:WAVCIS:CSI03:1,2010-01-06T15:00:00Z,29.4412,-92.0613,4.649,11111222 
WAVCIS,ioos:station:WAVCIS:CSI03:1,2010-01-06T16:00:00Z,29.4412,-92.0613,4.569,11111222 
WAVCIS,ioos:station:WAVCIS:CSI03:1,2010-01-06T17:00:00Z,29.4412,-92.0613,4.493,11111222 
WAVCIS,ioos:station:WAVCIS:CSI03:1,2010-01-06T18:00:00Z,29.4412,-92.0613,4.679,11111222 
WAVCIS,ioos:station:WAVCIS:CSI03:1,2010-01-06T19:00:00Z,29.4412,-92.0613,4.953,11111222 
WAVCIS,ioos:station:WAVCIS:CSI03:1,2010-01-06T20:00:00Z,29.4412,-92.0613,5.492,11111222 
WAVCIS,ioos:station:WAVCIS:CSI03:1,2010-01-06T21:00:00Z,29.4412,-92.0613,6.267,11111222 
WAVCIS,ioos:station:WAVCIS:CSI03:1,2010-01-06T22:00:00Z,29.4412,-92.0613,7.1,11111222 
WAVCIS,ioos:station:WAVCIS:CSI03:1,2010-01-06T23:00:00Z,29.4412,-92.0613,7.5,11111222 
WAVCIS,ioos:station:WAVCIS:CSI03:1,2010-01-07T00:00:00Z,29.4412,-92.0613,7.6,11111222 
WAVCIS,ioos:station:WAVCIS:CSI03:1,2010-01-07T01:00:00Z,29.4412,-92.0613,7.99,11111222 
WAVCIS,ioos:station:WAVCIS:CSI03:1,2010-01-07T02:00:00Z,29.4412,-92.0613,8.65,11111222 
WAVCIS,ioos:station:WAVCIS:CSI03:1,2010-01-07T03:00:00Z,29.4412,-92.0613,9.08,11111222 
WAVCIS,ioos:station:WAVCIS:CSI03:1,2010-01-07T04:00:00Z,29.4412,-92.0613,9.49,11111222 
WAVCIS,ioos:station:WAVCIS:CSI03:1,2010-01-07T05:00:00Z,29.4412,-92.0613,9.7,11111222 
WAVCIS,ioos:station:WAVCIS:CSI03:1,2010-01-07T06:00:00Z,29.4412,-92.0613,9.74,11111222 
WAVCIS,ioos:station:WAVCIS:CSI03:1,2010-01-07T07:00:00Z,29.4412,-92.0613,8.43,11111222 
WAVCIS,ioos:station:WAVCIS:CSI03:1,2010-01-07T08:00:00Z,29.4412,-92.0613,8.76,11111222 
WAVCIS,ioos:station:WAVCIS:CSI03:1,2010-01-07T09:00:00Z,29.4412,-92.0613,8.56,11111222 
WAVCIS,ioos:station:WAVCIS:CSI03:1,2010-01-07T10:00:00Z,29.4412,-92.0613,8.75,11111222 
WAVCIS,ioos:station:WAVCIS:CSI03:1,2010-01-07T11:00:00Z,29.4412,-92.0613,9.53,11111222 
WAVCIS,ioos:station:WAVCIS:CSI03:1,2010-01-07T12:00:00Z,29.4412,-92.0613,10.34,11111222 
WAVCIS,ioos:station:WAVCIS:CSI03:1,2010-01-07T13:00:00Z,29.4412,-92.0613,11.6,11111222 
WAVCIS,ioos:station:WAVCIS:CSI03:1,2010-01-07T14:00:00Z,29.4412,-92.0613,11.59,11111222 
WAVCIS,ioos:station:WAVCIS:CSI03:1,2010-01-07T15:00:00Z,29.4412,-92.0613,12.24,11111222 
WAVCIS,ioos:station:WAVCIS:CSI03:1,2010-01-07T16:00:00Z,29.4412,-92.0613,12.63,11111222 
WAVCIS,ioos:station:WAVCIS:CSI03:1,2010-01-07T17:00:00Z,29.4412,-92.0613,14.02,11111222 
WAVCIS,ioos:station:WAVCIS:CSI03:1,2010-01-07T18:00:00Z,29.4412,-92.0613,13.06,11111222 
WAVCIS,ioos:station:WAVCIS:CSI03:1,2010-01-07T19:00:00Z,29.4412,-92.0613,8.81,11111222 
WAVCIS,ioos:station:WAVCIS:CSI03:1,2010-01-07T20:00:00Z,29.4412,-92.0613,7.8,11111222 
WAVCIS,ioos:station:WAVCIS:CSI03:1,2010-01-07T21:00:00Z,29.4412,-92.0613,7.51,11111222 
WAVCIS,ioos:station:WAVCIS:CSI03:1,2010-01-07T22:00:00Z,29.4412,-92.0613,6.596,11111222 
WAVCIS,ioos:station:WAVCIS:CSI03:1,2010-01-07T23:00:00Z,29.4412,-92.0613,6.334,11111222 
WAVCIS,ioos:station:WAVCIS:CSI03:1,2010-01-08T00:00:00Z,29.4412,-92.0613,5.797,11111222 
WAVCIS,ioos:station:WAVCIS:CSI03:1,2010-01-08T01:00:00Z,29.4412,-92.0613,5.019,11111222 
WAVCIS,ioos:station:WAVCIS:CSI03:1,2010-01-08T02:00:00Z,29.4412,-92.0613,4.419,11111222 
WAVCIS,ioos:station:WAVCIS:CSI03:1,2010-01-08T03:00:00Z,29.4412,-92.0613,3.779,11111222 
WAVCIS,ioos:station:WAVCIS:CSI03:1,2010-01-08T04:00:00Z,29.4412,-92.0613,2.546,11111222 
WAVCIS,ioos:station:WAVCIS:CSI03:1,2010-01-08T05:00:00Z,29.4412,-92.0613,1.695,11111222 
WAVCIS,ioos:station:WAVCIS:CSI03:1,2010-01-08T06:00:00Z,29.4412,-92.0613,1.177,11111222 
WAVCIS,ioos:station:WAVCIS:CSI03:1,2010-01-08T07:00:00Z,29.4412,-92.0613,0.647,11111222 
WAVCIS,ioos:station:WAVCIS:CSI03:1,2010-01-08T08:00:00Z,29.4412,-92.0613,0.305,11111222 
WAVCIS,ioos:station:WAVCIS:CSI03:1,2010-01-08T09:00:00Z,29.4412,-92.0613,-0.068,11133222 
WAVCIS,ioos:station:WAVCIS:CSI03:1,2010-01-08T10:00:00Z,29.4412,-92.0613,-0.586,11133222 
WAVCIS,ioos:station:WAVCIS:CSI03:1,2010-01-08T11:00:00Z,29.4412,-92.0613,-0.91,11133222 
WAVCIS,ioos:station:WAVCIS:CSI03:1,2010-01-08T12:00:00Z,29.4412,-92.0613,-1.222,11133222 
WAVCIS,ioos:station:WAVCIS:CSI03:1,2010-01-08T13:00:00Z,29.4412,-92.0613,-1.778,11133222 
WAVCIS,ioos:station:WAVCIS:CSI03:1,2010-01-08T14:00:00Z,29.4412,-92.0613,-2.121,11133222 
WAVCIS,ioos:station:WAVCIS:CSI03:1,2010-01-08T15:00:00Z,29.4412,-92.0613,-2.364,11133222 
WAVCIS,ioos:station:WAVCIS:CSI03:1,2010-01-08T16:00:00Z,29.4412,-92.0613,-2.121,11133222 
WAVCIS,ioos:station:WAVCIS:CSI03:1,2010-01-08T17:00:00Z,29.4412,-92.0613,-2.226,11133222 
WAVCIS,ioos:station:WAVCIS:CSI03:1,2010-01-08T18:00:00Z,29.4412,-92.0613,-1.843,11133222 
WAVCIS,ioos:station:WAVCIS:CSI03:1,2010-01-08T19:00:00Z,29.4412,-92.0613,-1.608,11133222 
WAVCIS,ioos:station:WAVCIS:CSI03:1,2010-01-08T20:00:00Z,29.4412,-92.0613,-1.241,11133222 
WAVCIS,ioos:station:WAVCIS:CSI03:1,2010-01-08T21:00:00Z,29.4412,-92.0613,-0.731,11133222 
WAVCIS,ioos:station:WAVCIS:CSI03:1,2010-01-08T22:00:00Z,29.4412,-92.0613,-0.434,11133222 
WAVCIS,ioos:station:WAVCIS:CSI03:1,2010-01-08T23:00:00Z,29.4412,-92.0613,-0.66,11133222 
WAVCIS,ioos:station:WAVCIS:CSI03:1,2010-01-09T00:00:00Z,29.4412,-92.0613,-0.623,11133222 
WAVCIS,ioos:station:WAVCIS:CSI03:1,2010-01-09T01:00:00Z,29.4412,-92.0613,-0.43,11133222 
WAVCIS,ioos:station:WAVCIS:CSI03:1,2010-01-09T02:00:00Z,29.4412,-92.0613,-0.442,11133222 
WAVCIS,ioos:station:WAVCIS:CSI03:1,2010-01-09T03:00:00Z,29.4412,-92.0613,-0.564,11133222 
WAVCIS,ioos:station:WAVCIS:CSI03:1,2010-01-09T04:00:00Z,29.4412,-92.0613,-0.785,11133222 
WAVCIS,ioos:station:WAVCIS:CSI03:1,2010-01-09T05:00:00Z,29.4412,-92.0613,-0.948,11133222 
WAVCIS,ioos:station:WAVCIS:CSI03:1,2010-01-09T06:00:00Z,29.4412,-92.0613,-1.178,11133222 
WAVCIS,ioos:station:WAVCIS:CSI03:1,2010-01-09T07:00:00Z,29.4412,-92.0613,-1.39,11133222 
WAVCIS,ioos:station:WAVCIS:CSI03:1,2010-01-09T08:00:00Z,29.4412,-92.0613,-1.755,11133222 
WAVCIS,ioos:station:WAVCIS:CSI03:1,2010-01-09T09:00:00Z,29.4412,-92.0613,-2.173,11133222 
WAVCIS,ioos:station:WAVCIS:CSI03:1,2010-01-09T10:00:00Z,29.4412,-92.0613,-2.449,11133222 
WAVCIS,ioos:station:WAVCIS:CSI03:1,2010-01-09T11:00:00Z,29.4412,-92.0613,-2.735,11133222 
WAVCIS,ioos:station:WAVCIS:CSI03:1,2010-01-09T12:00:00Z,29.4412,-92.0613,-2.855,11133222 
WAVCIS,ioos:station:WAVCIS:CSI03:1,2010-01-09T13:00:00Z,29.4412,-92.0613,-3.231,11133222 
WAVCIS,ioos:station:WAVCIS:CSI03:1,2010-01-09T14:00:00Z,29.4412,-92.0613,-3.247,11133222 
WAVCIS,ioos:station:WAVCIS:CSI03:1,2010-01-09T15:00:00Z,29.4412,-92.0613,-3.137,11133222 
WAVCIS,ioos:station:WAVCIS:CSI03:1,2010-01-09T16:00:00Z,29.4412,-92.0613,-2.665,11133222 
WAVCIS,ioos:station:WAVCIS:CSI03:1,2010-01-09T17:00:00Z,29.4412,-92.0613,-2.036,11133222 
WAVCIS,ioos:station:WAVCIS:CSI03:1,2010-01-09T18:00:00Z,29.4412,-92.0613,-1.676,11133222 
WAVCIS,ioos:station:WAVCIS:CSI03:1,2010-01-09T19:00:00Z,29.4412,-92.0613,-0.981,11133222 
WAVCIS,ioos:station:WAVCIS:CSI03:1,2010-01-09T20:00:00Z,29.4412,-92.0613,-0.087,11133222 
WAVCIS,ioos:station:WAVCIS:CSI03:1,2010-01-09T21:00:00Z,29.4412,-92.0613,0.618,11111222 
WAVCIS,ioos:station:WAVCIS:CSI03:1,2010-01-09T22:00:00Z,29.4412,-92.0613,1.332,11111222 
WAVCIS,ioos:station:WAVCIS:CSI03:1,2010-01-09T23:00:00Z,29.4412,-92.0613,1.522,11111222 
WAVCIS,ioos:station:WAVCIS:CSI03:1,2010-01-10T00:00:00Z,29.4412,-92.0613,1.437,11111222 
WAVCIS,ioos:station:WAVCIS:CSI03:1,2010-01-10T01:00:00Z,29.4412,-92.0613,1.258,11111222 
WAVCIS,ioos:station:WAVCIS:CSI03:1,2010-01-10T02:00:00Z,29.4412,-92.0613,0.992,11111222 
WAVCIS,ioos:station:WAVCIS:CSI03:1,2010-01-10T03:00:00Z,29.4412,-92.0613,0.264,11111222 
WAVCIS,ioos:station:WAVCIS:CSI03:1,2010-01-10T04:00:00Z,29.4412,-92.0613,-0.442,11133222 
WAVCIS,ioos:station:WAVCIS:CSI03:1,2010-01-10T05:00:00Z,29.4412,-92.0613,-1.05,11133222 
WAVCIS,ioos:station:WAVCIS:CSI03:1,2010-01-10T06:00:00Z,29.4412,-92.0613,-1.348,11133222 
WAVCIS,ioos:station:WAVCIS:CSI03:1,2010-01-10T07:00:00Z,29.4412,-92.0613,-1.728,11133222 
WAVCIS,ioos:station:WAVCIS:CSI03:1,2010-01-10T08:00:00Z,29.4412,-92.0613,-1.937,11133222 
WAVCIS,ioos:station:WAVCIS:CSI03:1,2010-01-10T09:00:00Z,29.4412,-92.0613,-2.455,11133222 
WAVCIS,ioos:station:WAVCIS:CSI03:1,2010-01-10T10:00:00Z,29.4412,-92.0613,-2.638,11133222 
WAVCIS,ioos:station:WAVCIS:CSI03:1,2010-01-10T11:00:00Z,29.4412,-92.0613,-2.766,11133222 
WAVCIS,ioos:station:WAVCIS:CSI03:1,2010-01-10T12:00:00Z,29.4412,-92.0613,-2.65,11133222 
WAVCIS,ioos:station:WAVCIS:CSI03:1,2010-01-10T13:00:00Z,29.4412,-92.0613,-2.903,11133222 
WAVCIS,ioos:station:WAVCIS:CSI03:1,2010-01-10T14:00:00Z,29.4412,-92.0613,-2.954,11133222 
WAVCIS,ioos:station:WAVCIS:CSI03:1,2010-01-10T15:00:00Z,29.4412,-92.0613,-2.849,11133222 
WAVCIS,ioos:station:WAVCIS:CSI03:1,2010-01-10T16:00:00Z,29.4412,-92.0613,-2.302,11133222 
WAVCIS,ioos:station:WAVCIS:CSI03:1,2010-01-10T17:00:00Z,29.4412,-92.0613,-1.313,11133222 
WAVCIS,ioos:station:WAVCIS:CSI03:1,2010-01-10T18:00:00Z,29.4412,-92.0613,-0.093,11133222 
WAVCIS,ioos:station:WAVCIS:CSI03:1,2010-01-10T19:00:00Z,29.4412,-92.0613,0.15,11111222 
WAVCIS,ioos:station:WAVCIS:CSI03:1,2010-01-10T20:00:00Z,29.4412,-92.0613,0.948,11111222 
WAVCIS,ioos:station:WAVCIS:CSI03:1,2010-01-10T21:00:00Z,29.4412,-92.0613,2.043,11111222 
WAVCIS,ioos:station:WAVCIS:CSI03:1,2010-01-10T22:00:00Z,29.4412,-92.0613,2.978,11111222 
WAVCIS,ioos:station:WAVCIS:CSI03:1,2010-01-10T23:00:00Z,29.4412,-92.0613,3.042,11111222 
WAVCIS,ioos:station:WAVCIS:CSI03:1,2010-01-11T00:00:00Z,29.4412,-92.0613,2.467,11111222 
WAVCIS,ioos:station:WAVCIS:CSI03:1,2010-01-11T01:00:00Z,29.4412,-92.0613,2.851,11111222 
WAVCIS,ioos:station:WAVCIS:CSI03:1,2010-01-11T02:00:00Z,29.4412,-92.0613,2.855,11111222 
WAVCIS,ioos:station:WAVCIS:CSI03:1,2010-01-11T03:00:00Z,29.4412,-92.0613,2.679,11111222 
WAVCIS,ioos:station:WAVCIS:CSI03:1,2010-01-11T04:00:00Z,29.4412,-92.0613,2.577,11111222 
WAVCIS,ioos:station:WAVCIS:CSI03:1,2010-01-11T05:00:00Z,29.4412,-92.0613,2.41,11111222 
WAVCIS,ioos:station:WAVCIS:CSI03:1,2010-01-11T06:00:00Z,29.4412,-92.0613,2.464,11111222 
WAVCIS,ioos:station:WAVCIS:CSI03:1,2010-01-11T07:00:00Z,29.4412,-92.0613,2.243,11111222 
WAVCIS,ioos:station:WAVCIS:CSI03:1,2010-01-11T08:00:00Z,29.4412,-92.0613,2.018,11111222 
WAVCIS,ioos:station:WAVCIS:CSI03:1,2010-01-11T09:00:00Z,29.4412,-92.0613,1.662,11111222 
WAVCIS,ioos:station:WAVCIS:CSI03:1,2010-01-11T10:00:00Z,29.4412,-92.0613,1.233,11111222 
WAVCIS,ioos:station:WAVCIS:CSI03:1,2010-01-11T11:00:00Z,29.4412,-92.0613,1.082,11111222 
WAVCIS,ioos:station:WAVCIS:CSI03:1,2010-01-11T12:00:00Z,29.4412,-92.0613,0.847,11111222 
WAVCIS,ioos:station:WAVCIS:CSI03:1,2010-01-11T13:00:00Z,29.4412,-92.0613,0.946,11111222 
WAVCIS,ioos:station:WAVCIS:CSI03:1,2010-01-11T14:00:00Z,29.4412,-92.0613,2.381,11111222 
WAVCIS,ioos:station:WAVCIS:CSI03:1,2010-01-11T15:00:00Z,29.4412,-92.0613,3.751,11111222 
WAVCIS,ioos:station:WAVCIS:CSI03:1,2010-01-11T16:00:00Z,29.4412,-92.0613,4.571,11111222 
WAVCIS,ioos:station:WAVCIS:CSI03:1,2010-01-11T17:00:00Z,29.4412,-92.0613,3.223,11111222 
WAVCIS,ioos:station:WAVCIS:CSI03:1,2010-01-11T18:00:00Z,29.4412,-92.0613,2.932,11111222 
WAVCIS,ioos:station:WAVCIS:CSI03:1,2010-01-11T19:00:00Z,29.4412,-92.0613,4.199,11111222 
WAVCIS,ioos:station:WAVCIS:CSI03:1,2010-01-11T20:00:00Z,29.4412,-92.0613,4.534,11111222 
WAVCIS,ioos:station:WAVCIS:CSI03:1,2010-01-11T21:00:00Z,29.4412,-92.0613,5.307,11111222 
WAVCIS,ioos:station:WAVCIS:CSI03:1,2010-01-11T22:00:00Z,29.4412,-92.0613,5.7,11111222 
WAVCIS,ioos:station:WAVCIS:CSI03:1,2010-01-11T23:00:00Z,29.4412,-92.0613,6.352,11111222 
WAVCIS,ioos:station:WAVCIS:CSI03:1,2010-01-12T00:00:00Z,29.4412,-92.0613,6.638,11111222 
WAVCIS,ioos:station:WAVCIS:CSI03:1,2010-01-12T01:00:00Z,29.4412,-92.0613,6.571,11111222 
WAVCIS,ioos:station:WAVCIS:CSI03:1,2010-01-12T02:00:00Z,29.4412,-92.0613,6.895,11111222 
WAVCIS,ioos:station:WAVCIS:CSI03:1,2010-01-12T03:00:00Z,29.4412,-92.0613,7.1,11111222 
WAVCIS,ioos:station:WAVCIS:CSI03:1,2010-01-12T04:00:00Z,29.4412,-92.0613,7.65,11111222 
WAVCIS,ioos:station:WAVCIS:CSI03:1,2010-01-12T05:00:00Z,29.4412,-92.0613,7.57,11111222 
WAVCIS,ioos:station:WAVCIS:CSI03:1,2010-01-12T06:00:00Z,29.4412,-92.0613,7.88,11111222 
WAVCIS,ioos:station:WAVCIS:CSI03:1,2010-01-12T07:00:00Z,29.4412,-92.0613,8.8,11111222 
WAVCIS,ioos:station:WAVCIS:CSI03:1,2010-01-12T08:00:00Z,29.4412,-92.0613,8.99,11111222 
WAVCIS,ioos:station:WAVCIS:CSI03:1,2010-01-12T09:00:00Z,29.4412,-92.0613,9.29,11111222 
WAVCIS,ioos:station:WAVCIS:CSI03:1,2010-01-12T10:00:00Z,29.4412,-92.0613,7.73,11111222 
WAVCIS,ioos:station:WAVCIS:CSI03:1,2010-01-12T11:00:00Z,29.4412,-92.0613,7.09,11111222 
WAVCIS,ioos:station:WAVCIS:CSI03:1,2010-01-12T12:00:00Z,29.4412,-92.0613,6.751,11111222 